COSMOS 732

Satellite information

Favourite Embed

Satellite Type and Status

PAYLOADIN ORBIT

Key statistics

Satellite COSMOS 732 at a glance.

Uptime

18423

Days in orbit

Revolutions

≈ 12.6

Per day

Orbit

LEO

Low Earth Orbit

Inclination

74.0

Latest

Satellite identification and parameters

Extended collection of information and parameters for COSMOS 732.

Object identification

Identified? True

Debris? False

Object name: COSMOS 732

International designator: 1975-045A

Object number (NORAD): 7820

Object ID (CCSDS): 7820

Country: COMMONWEALTH OF INDEPENDENT STATES (CIS)

Current information (Y/N): Y

RCS size: MEDIUM

Orbital parameters

Period: 114.584 minutes

Inclination: 74.0161 deg

SMA: 7814.65 km

Apoapsis: 1469.716 km

Periapsis: 1403.315 km

RAAN: 299.6951 deg

Eccentricy: 0.0042485

Argument of periapsis: 171.0277 deg

Mean anomaly: 300.2491 deg

Mean motion: 12.56719798 rev/day

Mean motion (dot): 0.00000014 rev/day2

B* drag term: 0.00017874 1/REarth

Two-line elements (TLE)

Creation date: Nov. 2, 2025, 3:46 p.m.

Reference frame: TEME

Reference center: EARTH

Epoch: Nov. 2, 2025, 9:55 a.m. UTC

TLE line 0: 0 COSMOS 732

TLE line 1: 1 7820U 75045A 25306.41361354 .00000014 00000-0 17874-3 0 9996

TLE line 2: 2 7820 74.0161 299.6951 0042485 171.0277 300.2491 12.56719798313783

Live tracking on map

Real-time ground track for satellite COSMOS 732.

In-orbit conjunctions

There are no conjunctions computed for COSMOS 732, at the moment. Check back to stay up to date, as we update our databases every day.

Go to all conjunctions

Associated space launch

Military communications satellites

COSMOS 732 was lifted into orbit during the mission ‘Kosmos-3M | Strela-1M 89-96’, on board a Kosmos-3M space rocket.

The launch took place on May 28, 1975, 12:25 a.m. from 132/1 (132L).

For more information about the launch, click the button.

Launch to space Kosmos-3M | Strela-1M 89-96
Kosmos-3M | Strela-1M 89-96

Agency: N/A

Status: Launch Successful

Launch date: May 28, 1975, 12:25 a.m. UTC

Rocket: Kosmos-3M

Launch pad: 132/1 (132L)

Location: Plesetsk Cosmodrome, Russian Federation

...

Latest news about this satellite

There are no fresh news available about this satellite. Check back as we update our databases every day.


Newsletter sign-up

Weekly statistics, charts and insights to help you stay on top of the space industry.